| time (UTC) | temp F | wind direction | speed MPH | gust MPH | rain 1hr in | rain 24hr in | rain mn in | humidity % | barometer mb |
| 20260510180345 | 60 | 167 | 0.0 | 0.0 | 0.00 | 0.00 | 0.00 | 69 | 1023.5 |
| 20260510175842 | 59 | 212 | 0.0 | 0.0 | 0.00 | 0.00 | 0.00 | 71 | 1023.4 |
| 20260510175337 | 59 | 201 | 0.0 | 0.0 | 0.00 | 0.00 | 0.00 | 71 | 1023.4 |
| 20260510174833 | 58 | 185 | 0.0 | 0.0 | 0.00 | 0.00 | 0.00 | 71 | 1023.2 |
| 20260510174331 | 58 | 206 | 0.0 | 0.0 | 0.00 | 0.00 | 0.00 | 73 | 1023.5 |
| 20260510173827 | 58 | 182 | 0.0 | 0.0 | 0.00 | 0.00 | 0.00 | 72 | 1023.8 |
| 20260510173323 | 59 | 189 | 0.0 | 0.0 | 0.00 | 0.00 | 0.00 | 72 | 1023.8 |
| 20260510172820 | 58 | 209 | 0.0 | 0.0 | 0.00 | 0.00 | 0.00 | 72 | 1023.7 |
| 20260510172316 | 58 | 224 | 0.0 | 0.0 | 0.00 | 0.00 | 0.00 | 74 | 1023.5 |
| 20260510171812 | 58 | 193 | 0.0 | 0.0 | 0.00 | 0.00 | 0.00 | 74 | 1023.5 |
| 20260510171310 | 57 | 304 | 0.0 | 0.0 | 0.00 | 0.00 | 0.00 | 74 | 1023.5 |
| 20260510170807 | 57 | 152 | 0.0 | 0.0 | 0.00 | 0.00 | 0.00 | 74 | 1023.8 |
| 20260510170303 | 57 | 287 | 0.0 | 0.0 | 0.00 | 0.00 | 0.00 | 74 | 1023.6 |
| 20260510165758 | 57 | 233 | 0.0 | 0.0 | 0.00 | 0.00 | 0.00 | 74 | 1023.5 |
| 20260510165254 | 57 | 174 | 0.0 | 0.0 | 0.00 | 0.00 | 0.00 | 74 | 1023.6 |
| 20260510164752 | 57 | 209 | 0.0 | 0.0 | 0.00 | 0.00 | 0.00 | 75 | 1023.1 |
| 20260510164249 | 57 | 216 | 0.0 | 0.0 | 0.00 | 0.00 | 0.00 | 73 | 1023.3 |
| 20260510163744 | 57 | 170 | 0.0 | 0.0 | 0.00 | 0.00 | 0.00 | 75 | 1023.0 |
| 20260510163240 | 57 | 204 | 0.0 | 0.0 | 0.00 | 0.00 | 0.00 | 76 | 1023.0 |
| 20260510162740 | 57 | 203 | 0.0 | 0.0 | 0.00 | 0.00 | 0.00 | 78 | 1023.0 |
| 20260510162237 | 56 | 192 | 0.0 | 0.0 | 0.00 | 0.00 | 0.00 | 78 | 1023.0 |
| 20260510161733 | 56 | 103 | 0.0 | 0.0 | 0.00 | 0.00 | 0.00 | 78 | 1022.8 |
| 20260510161229 | 56 | 202 | 0.0 | 0.0 | 0.00 | 0.00 | 0.00 | 78 | 1022.9 |
| 20260510160726 | 56 | 241 | 0.0 | 0.0 | 0.00 | 0.00 | 0.00 | 77 | 1022.9 |
| 20260510160227 | 57 | 230 | 0.0 | 0.0 | 0.00 | 0.00 | 0.00 | 76 | 1022.9 |
| 20260510155723 | 57 | 213 | 0.0 | 0.0 | 0.00 | 0.00 | 0.00 | 76 | 1022.8 |
| 20260510155219 | 57 | 216 | 0.0 | 0.0 | 0.00 | 0.00 | 0.00 | 76 | 1022.9 |
| 20260510154715 | 57 | 188 | 0.0 | 0.0 | 0.00 | 0.00 | 0.00 | 77 | 1022.4 |
| 20260510154211 | 56 | 199 | 0.0 | 0.0 | 0.00 | 0.00 | 0.00 | 78 | 1022.1 |
| 20260510153706 | 55 | 224 | 0.0 | 0.0 | 0.00 | 0.00 | 0.00 | 78 | 1022.8 |
| 20260510153202 | 55 | 224 | 0.0 | 0.0 | 0.00 | 0.00 | 0.00 | 78 | 1022.7 |
| 20260510152659 | 55 | 228 | 0.0 | 0.0 | 0.00 | 0.00 | 0.00 | 80 | 1022.4 |
| 20260510152155 | 55 | 163 | 0.0 | 0.0 | 0.00 | 0.00 | 0.00 | 81 | 1022.4 |
| 20260510151652 | 55 | 130 | 0.0 | 0.0 | 0.00 | 0.00 | 0.00 | 82 | 1022.5 |
| 20260510151150 | 54 | 129 | 0.0 | 0.0 | 0.00 | 0.00 | 0.00 | 82 | 1022.2 |
| 20260510150646 | 54 | 119 | 0.0 | 0.0 | 0.00 | 0.00 | 0.00 | 82 | 1022.4 |
| 20260510150141 | 54 | 131 | 0.0 | 0.0 | 0.00 | 0.00 | 0.00 | 82 | 1022.5 |
| 20260510145638 | 54 | 145 | 0.0 | 0.0 | 0.00 | 0.00 | 0.00 | 82 | 1022.6 |
| 20260510145134 | 53 | 191 | 0.0 | 0.0 | 0.00 | 0.00 | 0.00 | 84 | 1022.3 |
| 20260510144630 | 53 | 184 | 0.0 | 0.0 | 0.00 | 0.00 | 0.00 | 84 | 1022.1 |
| 20260510144127 | 52 | 189 | 0.0 | 0.0 | 0.00 | 0.00 | 0.00 | 85 | 1022.4 |
| 20260510143622 | 52 | 134 | 0.0 | 0.0 | 0.00 | 0.00 | 0.00 | 86 | 1022.6 |
| 20260510143119 | 51 | 178 | 0.0 | 0.0 | 0.00 | 0.00 | 0.00 | 87 | 1022.9 |
| 20260510142616 | 51 | 162 | 0.0 | 0.0 | 0.00 | 0.00 | 0.00 | 89 | 1022.8 |
| 20260510142112 | 50 | 216 | 0.0 | 0.0 | 0.00 | 0.00 | 0.00 | 90 | 1022.8 |
| 20260510141609 | 50 | 244 | 0.0 | 0.0 | 0.00 | 0.00 | 0.00 | 90 | 1022.5 |
| 20260510141107 | 50 | 204 | 0.0 | 0.0 | 0.00 | 0.00 | 0.00 | 90 | 1022.3 |
| 20260510140603 | 50 | 190 | 0.0 | 0.0 | 0.00 | 0.00 | 0.00 | 90 | 1021.9 |
| 20260510135558 | 49 | 151 | 0.0 | 0.0 | 0.00 | 0.00 | 0.00 | 91 | 1021.6 |
| 20260510135055 | 49 | 155 | 0.0 | 0.0 | 0.00 | 0.00 | 0.00 | 91 | 1021.7 |
| 20260510134552 | 49 | 140 | 0.0 | 0.0 | 0.00 | 0.00 | 0.00 | 91 | 1021.8 |
| 20260510134049 | 49 | 174 | 0.0 | 0.0 | 0.00 | 0.00 | 0.00 | 91 | 1021.8 |
| 20260510133545 | 49 | 183 | 0.0 | 0.0 | 0.00 | 0.00 | 0.00 | 91 | 1021.7 |
| 20260510133041 | 48 | 139 | 0.0 | 0.0 | 0.00 | 0.00 | 0.00 | 92 | 1021.9 |
| 20260510132538 | 48 | 156 | 0.0 | 0.0 | 0.00 | 0.00 | 0.00 | 92 | 1022.2 |
| 20260510132035 | 48 | 162 | 0.0 | 0.0 | 0.00 | 0.00 | 0.00 | 92 | 1022.4 |
| 20260510131532 | 48 | 176 | 0.0 | 0.0 | 0.00 | 0.00 | 0.00 | 92 | 1022.5 |
| 20260510131029 | 48 | 182 | 0.0 | 0.0 | 0.00 | 0.00 | 0.00 | 92 | 1022.5 |
| 20260510130525 | 48 | 179 | 0.0 | 0.0 | 0.00 | 0.00 | 0.00 | 92 | 1022.4 |
| 20260510130023 | 48 | 192 | 0.0 | 0.0 | 0.00 | 0.00 | 0.00 | 91 | 1022.4 |
| 20260510125519 | 48 | 194 | 0.0 | 0.0 | 0.00 | 0.00 | 0.00 | 91 | 1022.6 |
| 20260510125016 | 48 | 179 | 0.0 | 0.0 | 0.00 | 0.00 | 0.00 | 91 | 1022.4 |
| 20260510124512 | 48 | 159 | 0.0 | 0.0 | 0.00 | 0.00 | 0.00 | 91 | 1022.4 |
| 20260510124009 | 48 | 176 | 0.0 | 0.0 | 0.00 | 0.00 | 0.00 | 91 | 1022.3 |
| 20260510123504 | 48 | 160 | 0.0 | 0.0 | 0.00 | 0.00 | 0.00 | 91 | 1022.1 |
| 20260510123001 | 49 | 151 | 0.0 | 0.0 | 0.00 | 0.00 | 0.00 | 91 | 1022.3 |
| 20260510122456 | 49 | 150 | 0.0 | 0.0 | 0.00 | 0.00 | 0.00 | 91 | 1022.4 |
| 20260510121953 | 49 | 151 | 0.0 | 0.0 | 0.00 | 0.00 | 0.00 | 91 | 1022.2 |
| 20260510121450 | 49 | 132 | 0.0 | 0.0 | 0.00 | 0.00 | 0.00 | 91 | 1021.9 |
| 20260510120947 | 49 | 151 | 0.0 | 0.0 | 0.00 | 0.00 | 0.00 | 91 | 1021.8 |
| 20260510120445 | 49 | 160 | 0.0 | 0.0 | 0.00 | 0.00 | 0.00 | 91 | 1021.9 |
| 20260510115940 | 49 | 149 | 0.0 | 0.0 | 0.00 | 0.00 | 0.00 | 92 | 1021.9 |
| 20260510115438 | 49 | 197 | 0.0 | 0.0 | 0.00 | 0.00 | 0.00 | 91 | 1021.8 |
| 20260510114933 | 49 | 146 | 0.0 | 0.0 | 0.00 | 0.00 | 0.00 | 91 | 1021.8 |
| 20260510114430 | 49 | 148 | 0.0 | 0.0 | 0.00 | 0.00 | 0.00 | 91 | 1021.7 |
| 20260510113926 | 49 | 183 | 0.0 | 0.0 | 0.00 | 0.00 | 0.00 | 91 | 1021.9 |
| 20260510113421 | 49 | 169 | 0.0 | 0.0 | 0.00 | 0.00 | 0.00 | 91 | 1021.8 |
| 20260510112919 | 49 | 116 | 0.0 | 0.0 | 0.00 | 0.00 | 0.00 | 91 | 1021.9 |
| 20260510112417 | 49 | 158 | 0.0 | 0.0 | 0.00 | 0.00 | 0.00 | 91 | 1022.1 |
| 20260510111912 | 49 | 129 | 0.0 | 0.0 | 0.00 | 0.00 | 0.00 | 91 | 1022.1 |
| 20260510111409 | 49 | 167 | 0.0 | 0.0 | 0.00 | 0.00 | 0.00 | 91 | 1022.2 |
| 20260510110904 | 49 | 154 | 0.0 | 0.0 | 0.00 | 0.00 | 0.00 | 91 | 1021.9 |
| 20260510110401 | 49 | 175 | 0.0 | 0.0 | 0.00 | 0.00 | 0.00 | 91 | 1021.8 |
| 20260510105857 | 49 | 191 | 0.0 | 0.0 | 0.00 | 0.00 | 0.00 | 91 | 1021.5 |
| 20260510105357 | 50 | 149 | 0.0 | 0.0 | 0.00 | 0.00 | 0.00 | 91 | 1021.5 |
| 20260510104853 | 49 | 179 | 0.0 | 0.0 | 0.00 | 0.00 | 0.00 | 91 | 1021.7 |
| 20260510104350 | 49 | 185 | 0.0 | 0.0 | 0.00 | 0.00 | 0.00 | 90 | 1021.7 |
| 20260510103846 | 49 | 185 | 0.0 | 0.0 | 0.00 | 0.00 | 0.00 | 89 | 1021.4 |
| 20260510103344 | 50 | 183 | 0.0 | 0.0 | 0.00 | 0.00 | 0.00 | 89 | 1021.3 |
| 20260510102839 | 50 | 176 | 0.0 | 0.0 | 0.00 | 0.00 | 0.00 | 89 | 1021.3 |
| 20260510102335 | 50 | 176 | 0.0 | 0.0 | 0.00 | 0.00 | 0.00 | 89 | 1021.4 |
| 20260510101832 | 50 | 181 | 0.0 | 0.0 | 0.00 | 0.00 | 0.00 | 88 | 1021.4 |
| 20260510101330 | 50 | 177 | 0.0 | 0.0 | 0.00 | 0.00 | 0.00 | 88 | 1021.3 |
| 20260510100826 | 50 | 185 | 0.0 | 0.0 | 0.00 | 0.00 | 0.00 | 88 | 1021.2 |
| 20260510100324 | 50 | 177 | 0.0 | 0.0 | 0.00 | 0.00 | 0.00 | 88 | 1021.2 |
| 20260510095820 | 50 | 174 | 0.0 | 0.0 | 0.00 | 0.00 | 0.00 | 87 | 1021.1 |
| 20260510095315 | 50 | 181 | 0.0 | 0.0 | 0.00 | 0.00 | 0.00 | 87 | 1021.0 |
| 20260510094815 | 50 | 185 | 0.0 | 0.0 | 0.00 | 0.00 | 0.00 | 87 | 1021.0 |
| 20260510094310 | 51 | 140 | 0.0 | 0.0 | 0.00 | 0.00 | 0.00 | 87 | 1021.0 |
| 20260510093807 | 50 | 189 | 0.0 | 0.0 | 0.00 | 0.00 | 0.00 | 87 | 1020.8 |
| 20260510093303 | 50 | 195 | 0.0 | 0.0 | 0.00 | 0.00 | 0.00 | 86 | 1021.0 |
| 20260510092759 | 50 | 195 | 0.0 | 0.0 | 0.00 | 0.00 | 0.00 | 86 | 1020.9 |
| 20260510092255 | 51 | 189 | 0.0 | 0.0 | 0.00 | 0.00 | 0.00 | 86 | 1020.8 |
| 20260510091751 | 51 | 179 | 0.0 | 0.0 | 0.00 | 0.00 | 0.00 | 85 | 1020.7 |
| 20260510091249 | 51 | 184 | 0.0 | 0.0 | 0.00 | 0.00 | 0.00 | 85 | 1020.7 |
| 20260510090745 | 51 | 177 | 0.0 | 0.0 | 0.00 | 0.00 | 0.00 | 85 | 1020.8 |
| 20260510090242 | 52 | 167 | 0.0 | 0.0 | 0.00 | 0.00 | 0.00 | 85 | 1020.6 |
| 20260510085737 | 52 | 131 | 0.0 | 0.0 | 0.00 | 0.00 | 0.00 | 84 | 1020.8 |
| 20260510085232 | 52 | 145 | 0.0 | 0.0 | 0.00 | 0.00 | 0.00 | 84 | 1020.7 |
| 20260510084728 | 52 | 157 | 0.0 | 0.0 | 0.00 | 0.00 | 0.00 | 84 | 1020.6 |
| 20260510084225 | 52 | 147 | 0.0 | 0.0 | 0.00 | 0.00 | 0.00 | 84 | 1020.6 |
| 20260510083721 | 52 | 169 | 0.0 | 0.0 | 0.00 | 0.00 | 0.00 | 84 | 1020.4 |
| 20260510083219 | 52 | 172 | 0.0 | 0.0 | 0.00 | 0.00 | 0.00 | 84 | 1020.7 |
| 20260510082714 | 52 | 171 | 0.0 | 0.0 | 0.00 | 0.00 | 0.00 | 84 | 1020.4 |
| 20260510082211 | 52 | 191 | 0.0 | 0.0 | 0.00 | 0.00 | 0.00 | 83 | 1020.5 |
| 20260510081710 | 52 | 185 | 0.0 | 0.0 | 0.00 | 0.00 | 0.00 | 83 | 1020.5 |
| 20260510081207 | 52 | 149 | 0.0 | 0.0 | 0.00 | 0.00 | 0.00 | 83 | 1020.4 |
| 20260510080701 | 52 | 180 | 0.0 | 0.0 | 0.00 | 0.00 | 0.00 | 83 | 1020.5 |
| 20260510080158 | 53 | 170 | 0.0 | 0.0 | 0.00 | 0.00 | 0.00 | 83 | 1020.6 |
| 20260510075654 | 53 | 175 | 0.0 | 0.0 | 0.00 | 0.00 | 0.00 | 83 | 1020.6 |
| 20260510075152 | 53 | 201 | 0.0 | 0.0 | 0.00 | 0.00 | 0.00 | 82 | 1020.6 |
| 20260510074649 | 53 | 196 | 0.0 | 0.0 | 0.00 | 0.00 | 0.00 | 82 | 1020.5 |
| 20260510074144 | 53 | 180 | 0.0 | 0.0 | 0.00 | 0.00 | 0.00 | 82 | 1020.6 |
| 20260510073641 | 53 | 181 | 0.0 | 0.0 | 0.00 | 0.00 | 0.00 | 82 | 1020.5 |
| 20260510073137 | 53 | 178 | 0.0 | 0.0 | 0.00 | 0.00 | 0.00 | 81 | 1020.5 |
| 20260510072634 | 54 | 180 | 0.0 | 0.0 | 0.00 | 0.00 | 0.00 | 81 | 1020.5 |
| 20260510072130 | 54 | 191 | 0.0 | 0.0 | 0.00 | 0.00 | 0.00 | 80 | 1020.6 |
| 20260510071626 | 54 | 191 | 0.0 | 0.0 | 0.00 | 0.00 | 0.00 | 80 | 1020.4 |
| 20260510071124 | 55 | 185 | 0.0 | 0.0 | 0.00 | 0.00 | 0.00 | 80 | 1020.5 |
| 20260510070621 | 55 | 165 | 0.0 | 0.0 | 0.00 | 0.00 | 0.00 | 79 | 1020.7 |
| 20260510070119 | 55 | 150 | 0.0 | 0.0 | 0.00 | 0.00 | 0.00 | 79 | 1020.8 |
| 20260510065614 | 55 | 129 | 0.0 | 0.0 | 0.00 | 0.00 | 0.00 | 79 | 1020.6 |
| 20260510065110 | 55 | 161 | 0.0 | 0.0 | 0.00 | 0.00 | 0.00 | 78 | 1020.5 |
| 20260510064606 | 55 | 181 | 0.0 | 0.0 | 0.00 | 0.00 | 0.00 | 78 | 1020.8 |
| 20260510064104 | 55 | 193 | 0.0 | 0.0 | 0.00 | 0.00 | 0.00 | 78 | 1020.6 |
| 20260510063555 | 56 | 150 | 0.0 | 0.0 | 0.00 | 0.00 | 0.00 | 78 | 1020.8 |
| 20260510063052 | 56 | 171 | 0.0 | 0.0 | 0.00 | 0.00 | 0.00 | 77 | 1020.5 |
| 20260510062548 | 56 | 150 | 0.0 | 0.0 | 0.00 | 0.00 | 0.00 | 76 | 1020.6 |
| 20260510062043 | 56 | 176 | 0.0 | 0.0 | 0.00 | 0.00 | 0.00 | 76 | 1020.7 |
| 20260510061540 | 56 | 166 | 0.0 | 0.0 | 0.00 | 0.00 | 0.00 | 76 | 1020.7 |
| 20260510061037 | 56 | 171 | 0.0 | 0.0 | 0.00 | 0.00 | 0.00 | 75 | 1020.6 |
| 20260510060533 | 57 | 169 | 0.0 | 0.0 | 0.00 | 0.00 | 0.00 | 75 | 1020.5 |
| 20260510060029 | 57 | 185 | 0.0 | 0.0 | 0.00 | 0.00 | 0.00 | 74 | 1020.6 |
| 20260510055526 | 57 | 181 | 0.0 | 0.0 | 0.00 | 0.00 | 0.00 | 74 | 1020.6 |
| 20260510055024 | 57 | 171 | 0.0 | 0.0 | 0.00 | 0.00 | 0.00 | 73 | 1020.6 |
| 20260510054520 | 58 | 176 | 0.0 | 0.0 | 0.00 | 0.00 | 0.00 | 73 | 1020.5 |
| 20260510054015 | 58 | 178 | 0.0 | 0.0 | 0.00 | 0.00 | 0.00 | 73 | 1020.4 |
| 20260510053510 | 57 | 184 | 0.0 | 0.0 | 0.00 | 0.00 | 0.00 | 71 | 1020.5 |
| 20260510053007 | 58 | 182 | 0.0 | 0.0 | 0.00 | 0.00 | 0.00 | 71 | 1020.4 |
| 20260510052503 | 59 | 159 | 0.0 | 0.0 | 0.00 | 0.00 | 0.00 | 70 | 1020.5 |
| 20260510051959 | 58 | 176 | 0.0 | 0.0 | 0.00 | 0.00 | 0.00 | 70 | 1020.4 |
| 20260510051454 | 58 | 186 | 0.0 | 0.0 | 0.00 | 0.00 | 0.00 | 70 | 1020.4 |
| 20260510050951 | 59 | 187 | 0.0 | 0.0 | 0.00 | 0.00 | 0.00 | 69 | 1020.5 |
| 20260510050449 | 59 | 187 | 0.0 | 0.0 | 0.00 | 0.00 | 0.00 | 69 | 1020.5 |
| 20260510045945 | 59 | 181 | 0.0 | 0.0 | 0.00 | 0.00 | 0.00 | 68 | 1020.6 |
| 20260510045443 | 59 | 215 | 0.0 | 0.0 | 0.00 | 0.00 | 0.00 | 67 | 1020.5 |
| 20260510044939 | 59 | 200 | 0.0 | 0.0 | 0.00 | 0.00 | 0.00 | 67 | 1020.6 |
| 20260510044436 | 60 | 193 | 0.0 | 0.0 | 0.00 | 0.00 | 0.00 | 67 | 1020.7 |
| 20260510043933 | 60 | 193 | 0.0 | 0.0 | 0.00 | 0.00 | 0.00 | 67 | 1020.5 |
| 20260510043428 | 60 | 193 | 0.0 | 0.0 | 0.00 | 0.00 | 0.00 | 67 | 1020.4 |
| 20260510042927 | 60 | 195 | 0.0 | 0.0 | 0.00 | 0.00 | 0.00 | 65 | 1020.5 |
| 20260510042423 | 61 | 194 | 0.0 | 0.0 | 0.00 | 0.00 | 0.00 | 65 | 1020.4 |
| 20260510041918 | 61 | 141 | 0.0 | 0.0 | 0.00 | 0.00 | 0.00 | 64 | 1020.5 |
| 20260510041416 | 62 | 207 | 0.0 | 0.0 | 0.00 | 0.00 | 0.00 | 61 | 1020.5 |
| 20260510040914 | 62 | 207 | 0.0 | 0.0 | 0.00 | 0.00 | 0.00 | 60 | 1020.3 |
| 20260510040410 | 63 | 258 | 0.0 | 0.0 | 0.00 | 0.00 | 0.00 | 59 | 1020.3 |
| 20260510035906 | 63 | 252 | 0.0 | 0.0 | 0.00 | 0.00 | 0.00 | 59 | 1020.4 |
| 20260510035402 | 63 | 231 | 0.0 | 0.0 | 0.00 | 0.00 | 0.00 | 59 | 1020.4 |
| 20260510034857 | 63 | 263 | 0.0 | 0.0 | 0.00 | 0.00 | 0.00 | 60 | 1020.3 |
| 20260510034356 | 63 | 204 | 0.0 | 0.0 | 0.00 | 0.00 | 0.00 | 60 | 1020.2 |
| 20260510033852 | 63 | 203 | 0.0 | 0.0 | 0.00 | 0.00 | 0.00 | 59 | 1020.2 |
| 20260510033348 | 64 | 195 | 0.0 | 0.0 | 0.00 | 0.00 | 0.00 | 58 | 1020.0 |
| 20260510032844 | 64 | 195 | 0.0 | 0.0 | 0.00 | 0.00 | 0.00 | 58 | 1020.3 |
| 20260510032342 | 64 | 190 | 0.0 | 0.0 | 0.00 | 0.00 | 0.00 | 57 | 1020.4 |
| 20260510031837 | 64 | 205 | 0.0 | 0.0 | 0.00 | 0.00 | 0.00 | 57 | 1020.3 |
| 20260510031333 | 64 | 205 | 0.0 | 0.0 | 0.00 | 0.00 | 0.00 | 56 | 1020.5 |
| 20260510030832 | 65 | 206 | 0.0 | 0.0 | 0.00 | 0.00 | 0.00 | 56 | 1020.6 |
| 20260510030329 | 65 | 190 | 0.0 | 0.0 | 0.00 | 0.00 | 0.00 | 55 | 1020.5 |
| 20260510025826 | 65 | 215 | 0.0 | 0.0 | 0.00 | 0.00 | 0.00 | 54 | 1020.5 |
| 20260510025324 | 66 | 215 | 0.0 | 0.0 | 0.00 | 0.00 | 0.00 | 53 | 1020.5 |
| 20260510024821 | 66 | 234 | 0.0 | 0.0 | 0.00 | 0.00 | 0.00 | 52 | 1020.6 |
| 20260510024318 | 66 | 246 | 0.0 | 0.0 | 0.00 | 0.00 | 0.00 | 51 | 1020.5 |
| 20260510023814 | 67 | 243 | 0.0 | 0.0 | 0.00 | 0.00 | 0.00 | 51 | 1020.7 |
| 20260510023310 | 67 | 232 | 0.0 | 0.0 | 0.00 | 0.00 | 0.00 | 50 | 1020.7 |
| 20260510022807 | 67 | 232 | 0.0 | 0.0 | 0.00 | 0.00 | 0.00 | 50 | 1020.9 |
| 20260510022307 | 67 | 284 | 0.0 | 0.0 | 0.00 | 0.00 | 0.00 | 50 | 1020.8 |
| 20260510021806 | 67 | 278 | 0.0 | 0.0 | 0.00 | 0.00 | 0.00 | 49 | 1020.6 |
| 20260510021304 | 68 | 291 | 0.0 | 0.0 | 0.00 | 0.00 | 0.00 | 49 | 1020.9 |
| 20260510020759 | 68 | 241 | 0.0 | 0.0 | 0.00 | 0.00 | 0.00 | 49 | 1020.8 |
| 20260510020254 | 68 | 244 | 0.0 | 0.0 | 0.00 | 0.00 | 0.00 | 49 | 1020.7 |
| 20260510015750 | 68 | 251 | 0.0 | 5.0 | 0.00 | 0.00 | 0.00 | 48 | 1020.8 |
| 20260510015247 | 69 | 268 | 0.0 | 0.0 | 0.00 | 0.00 | 0.00 | 47 | 1020.9 |
| 20260510014742 | 69 | 291 | 0.0 | 0.0 | 0.00 | 0.00 | 0.00 | 47 | 1021.2 |
| 20260510014239 | 69 | 283 | 0.0 | 5.0 | 0.00 | 0.00 | 0.00 | 46 | 1021.5 |
| 20260510013735 | 69 | 223 | 0.0 | 0.0 | 0.00 | 0.00 | 0.00 | 46 | 1021.3 |
| 20260510013231 | 69 | 243 | 0.0 | 0.0 | 0.00 | 0.00 | 0.00 | 46 | 1021.3 |
| 20260510012725 | 69 | 241 | 0.0 | 5.0 | 0.00 | 0.00 | 0.00 | 46 | 1021.5 |
| 20260510012221 | 69 | 272 | 1.0 | 7.0 | 0.00 | 0.00 | 0.00 | 45 | 1021.5 |
| 20260510011720 | 69 | 242 | 0.0 | 7.0 | 0.00 | 0.00 | 0.00 | 45 | 1021.6 |
| 20260510011216 | 70 | 304 | 2.0 | 5.0 | 0.00 | 0.00 | 0.00 | 44 | 1021.4 |
| 20260510010713 | 71 | 245 | 0.0 | 0.0 | 0.00 | 0.00 | 0.00 | 44 | 1021.7 |
| 20260510010210 | 70 | 219 | 0.0 | 5.0 | 0.00 | 0.00 | 0.00 | 44 | 1021.6 |
| 20260510005707 | 71 | 216 | 0.0 | 0.0 | 0.00 | 0.00 | 0.00 | 44 | 1021.4 |
| 20260510005203 | 70 | 243 | 0.0 | 0.0 | 0.00 | 0.00 | 0.00 | 45 | 1021.4 |
| 20260510004701 | 70 | 251 | 0.0 | 0.0 | 0.00 | 0.00 | 0.00 | 44 | 1021.7 |
| 20260510004159 | 70 | 305 | 0.0 | 0.0 | 0.00 | 0.00 | 0.00 | 44 | 1021.8 |
| 20260510003656 | 70 | 273 | 0.0 | 0.0 | 0.00 | 0.00 | 0.00 | 44 | 1021.8 |
| 20260510003152 | 70 | 281 | 3.0 | 5.0 | 0.00 | 0.00 | 0.00 | 44 | 1022.0 |
| 20260510002652 | 69 | 238 | 0.0 | 5.0 | 0.00 | 0.00 | 0.00 | 45 | 1021.7 |
| 20260510002149 | 70 | 265 | 0.0 | 0.0 | 0.00 | 0.00 | 0.00 | 44 | 1022.0 |
| 20260510001646 | 71 | 316 | 3.0 | 7.0 | 0.00 | 0.00 | 0.00 | 43 | 1022.0 |
| 20260510001144 | 71 | 216 | 0.0 | 0.0 | 0.00 | 0.00 | 0.00 | 43 | 1022.1 |
| 20260510000639 | 70 | 299 | 3.0 | 10.0 | 0.00 | 0.00 | 0.00 | 44 | 1022.0 |
| 20260510000137 | 71 | 257 | 0.0 | 0.0 | 0.00 | 0.00 | 0.00 | 43 | 1022.2 |
| 20260509235633 | 72 | 265 | 2.0 | 5.0 | 0.00 | 0.00 | 0.00 | 43 | 1022.1 |
| 20260509235130 | 72 | 217 | 0.0 | 0.0 | 0.00 | 0.00 | 0.00 | 44 | 1022.2 |
| 20260509234625 | 72 | 226 | 0.0 | 0.0 | 0.00 | 0.00 | 0.00 | 43 | 1022.3 |
| 20260509234123 | 72 | 214 | 0.0 | 0.0 | 0.00 | 0.00 | 0.00 | 44 | 1022.4 |
| 20260509233621 | 71 | 300 | 4.0 | 7.0 | 0.00 | 0.00 | 0.00 | 44 | 1022.4 |
| 20260509233118 | 71 | 292 | 1.0 | 5.0 | 0.00 | 0.00 | 0.00 | 44 | 1022.6 |
| 20260509232614 | 71 | 293 | 0.0 | 3.0 | 0.00 | 0.00 | 0.00 | 43 | 1022.5 |
| 20260509232111 | 72 | 286 | 0.0 | 0.0 | 0.00 | 0.00 | 0.00 | 44 | 1022.5 |
| 20260509231608 | 71 | 253 | 0.0 | 7.0 | 0.00 | 0.00 | 0.00 | 45 | 1022.5 |
| 20260509231105 | 71 | 221 | 0.0 | 7.0 | 0.00 | 0.00 | 0.00 | 45 | 1022.7 |
| 20260509230602 | 69 | 280 | 0.0 | 7.0 | 0.00 | 0.00 | 0.00 | 46 | 1022.6 |
| 20260509230059 | 70 | 296 | 0.0 | 10.0 | 0.00 | 0.00 | 0.00 | 46 | 1022.9 |
| 20260509225555 | 71 | 299 | 0.0 | 5.0 | 0.00 | 0.00 | 0.00 | 45 | 1023.1 |
| 20260509225050 | 71 | 254 | 0.0 | 0.0 | 0.00 | 0.00 | 0.00 | 45 | 1022.9 |
| 20260509224546 | 69 | 290 | 2.0 | 7.0 | 0.00 | 0.00 | 0.00 | 46 | 1023.3 |
| 20260509224043 | 70 | 318 | 3.0 | 10.0 | 0.00 | 0.00 | 0.00 | 45 | 1023.2 |
| 20260509223540 | 70 | 271 | 0.0 | 3.0 | 0.00 | 0.00 | 0.00 | 47 | 1023.3 |
| 20260509223038 | 71 | 293 | 4.0 | 7.0 | 0.00 | 0.00 | 0.00 | 45 | 1023.2 |
| 20260509222533 | 70 | 244 | 0.0 | 5.0 | 0.00 | 0.00 | 0.00 | 48 | 1023.2 |
| 20260509222035 | 69 | 185 | 0.0 | 5.0 | 0.00 | 0.00 | 0.00 | 49 | 1023.3 |
| 20260509221525 | 69 | 269 | 0.0 | 5.0 | 0.00 | 0.00 | 0.00 | 49 | 1023.4 |
| 20260509221022 | 69 | 290 | 4.0 | 7.0 | 0.00 | 0.00 | 0.00 | 50 | 1023.5 |
| 20260509220518 | 68 | 272 | 3.0 | 12.0 | 0.00 | 0.00 | 0.00 | 51 | 1023.4 |
| 20260509220014 | 69 | 283 | 0.0 | 3.0 | 0.00 | 0.00 | 0.00 | 50 | 1023.2 |
| 20260509215509 | 69 | 276 | 0.0 | 7.0 | 0.00 | 0.00 | 0.00 | 49 | 1023.5 |
| 20260509215007 | 71 | 253 | 0.0 | 5.0 | 0.00 | 0.00 | 0.00 | 48 | 1023.2 |
| 20260509214504 | 71 | 230 | 0.0 | 0.0 | 0.00 | 0.00 | 0.00 | 48 | 1023.3 |
| 20260509214001 | 70 | 251 | 0.0 | 0.0 | 0.00 | 0.00 | 0.00 | 50 | 1023.5 |
| 20260509213457 | 69 | 236 | 0.0 | 5.0 | 0.00 | 0.00 | 0.00 | 51 | 1023.4 |
| 20260509212954 | 69 | 224 | 0.0 | 5.0 | 0.00 | 0.00 | 0.00 | 52 | 1023.5 |
| 20260509212451 | 69 | 286 | 0.0 | 5.0 | 0.00 | 0.00 | 0.00 | 51 | 1023.7 |
| 20260509211948 | 69 | 291 | 0.0 | 5.0 | 0.00 | 0.00 | 0.00 | 52 | 1023.5 |
| 20260509211443 | 68 | 317 | 3.0 | 7.0 | 0.00 | 0.00 | 0.00 | 52 | 1023.6 |
| 20260509210940 | 69 | 300 | 6.0 | 7.0 | 0.00 | 0.00 | 0.00 | 52 | 1023.8 |
| 20260509210437 | 68 | 283 | 0.0 | 7.0 | 0.00 | 0.00 | 0.00 | 53 | 1023.8 |
| 20260509205932 | 68 | 295 | 3.0 | 5.0 | 0.00 | 0.00 | 0.00 | 52 | 1023.9 |
| 20260509205427 | 68 | 315 | 0.0 | 5.0 | 0.00 | 0.00 | 0.00 | 53 | 1023.9 |
| 20260509204923 | 68 | 278 | 3.0 | 10.0 | 0.00 | 0.00 | 0.00 | 53 | 1023.8 |
| 20260509204420 | 70 | 276 | 0.0 | 0.0 | 0.00 | 0.00 | 0.00 | 50 | 1023.8 |
| 20260509203917 | 69 | 275 | 0.0 | 3.0 | 0.00 | 0.00 | 0.00 | 54 | 1023.8 |
| 20260509203412 | 68 | 305 | 1.0 | 5.0 | 0.00 | 0.00 | 0.00 | 54 | 1023.8 |
| 20260509202910 | 70 | 271 | 0.0 | 0.0 | 0.00 | 0.00 | 0.00 | 51 | 1024.0 |
| 20260509202406 | 68 | 291 | 0.0 | 5.0 | 0.00 | 0.00 | 0.00 | 54 | 1024.0 |
| 20260509201901 | 67 | 230 | 0.0 | 10.0 | 0.00 | 0.00 | 0.00 | 55 | 1024.2 |
| 20260509201356 | 68 | 312 | 0.0 | 3.0 | 0.00 | 0.00 | 0.00 | 54 | 1024.2 |
| 20260509200854 | 68 | 196 | 0.0 | 5.0 | 0.00 | 0.00 | 0.00 | 53 | 1024.3 |
| 20260509200348 | 70 | 200 | 0.0 | 0.0 | 0.00 | 0.00 | 0.00 | 52 | 1024.4 |
| 20260509195846 | 68 | 251 | 0.0 | 3.0 | 0.00 | 0.00 | 0.00 | 54 | 1024.4 |
| 20260509195345 | 69 | 282 | 3.0 | 5.0 | 0.00 | 0.00 | 0.00 | 51 | 1024.4 |
| 20260509194845 | 69 | 160 | 0.0 | 0.0 | 0.00 | 0.00 | 0.00 | 52 | 1024.6 |
| 20260509194342 | 69 | 241 | 0.0 | 0.0 | 0.00 | 0.00 | 0.00 | 52 | 1024.9 |
| 20260509193838 | 71 | 206 | 0.0 | 0.0 | 0.00 | 0.00 | 0.00 | 51 | 1024.8 |
| 20260509193338 | 70 | 283 | 0.0 | 0.0 | 0.00 | 0.00 | 0.00 | 53 | 1024.8 |
| 20260509192835 | 67 | 256 | 0.0 | 7.0 | 0.00 | 0.00 | 0.00 | 55 | 1024.7 |
| 20260509192331 | 68 | 307 | 4.0 | 5.0 | 0.00 | 0.00 | 0.00 | 55 | 1024.9 |
| 20260509191826 | 68 | 263 | 1.0 | 5.0 | 0.00 | 0.00 | 0.00 | 54 | 1024.9 |
| 20260509191322 | 67 | 261 | 0.0 | 7.0 | 0.00 | 0.00 | 0.00 | 56 | 1024.9 |
| 20260509190818 | 67 | 282 | 3.0 | 7.0 | 0.00 | 0.00 | 0.00 | 55 | 1025.0 |
| 20260509190315 | 67 | 89 | 0.0 | 3.0 | 0.00 | 0.00 | 0.00 | 54 | 1025.1 |
| 20260509185813 | 68 | 268 | 2.0 | 3.0 | 0.00 | 0.00 | 0.00 | 53 | 1025.1 |
| 20260509185309 | 66 | 176 | 0.0 | 5.0 | 0.00 | 0.00 | 0.00 | 58 | 1025.1 |
| 20260509184806 | 66 | 263 | 1.0 | 5.0 | 0.00 | 0.00 | 0.00 | 57 | 1025.3 |
| 20260509184304 | 66 | 291 | 4.0 | 7.0 | 0.00 | 0.00 | 0.00 | 57 | 1025.2 |
| 20260509183800 | 66 | 255 | 0.0 | 5.0 | 0.00 | 0.00 | 0.00 | 58 | 1025.2 |
| 20260509183255 | 69 | 266 | 0.0 | 0.0 | 0.00 | 0.00 | 0.00 | 54 | 1025.4 |
| 20260509182751 | 66 | 237 | 0.0 | 0.0 | 0.00 | 0.00 | 0.00 | 59 | 1025.2 |
| 20260509182248 | 64 | 290 | 6.0 | 10.0 | 0.00 | 0.00 | 0.00 | 60 | 1025.5 |
| 20260509181746 | 64 | 278 | 0.0 | 7.0 | 0.00 | 0.00 | 0.00 | 61 | 1025.2 |
| 20260509181243 | 65 | 284 | 3.0 | 10.0 | 0.00 | 0.00 | 0.00 | 59 | 1025.4 |
| 20260509180740 | 68 | 239 | 0.0 | 0.0 | 0.00 | 0.00 | 0.00 | 52 | 1025.3 |